DW6123 Weather Reports


time (UTC)temp
F
wind
direction
speed
knots
gust
knots
rain 1hr
in
rain 24hr
in
rain mn
in
humidity
%
barometer
mb
20260507051708 57 214 0.0 1.7 0.00 0.00 0.00 78 1021.3
20260507051208 57 215 0.0 1.7 0.00 0.00 0.00 78 1021.3
20260507050706 57 165 0.0 0.0 0.00 0.00 0.00 78 1021.3
20260507050203 57 165 0.0 0.9 0.00 0.00 0.00 78 1021.4
20260507045704 57 165 0.0 1.7 0.00 0.00 0.00 78 1021.4
20260507045203 57 202 0.0 1.7 0.00 0.00 0.00 78 1021.3
20260507044202 57 186 0.0 1.7 0.00 0.00 0.00 78 1021.3
20260507043703 57 151 0.9 2.6 0.00 0.00 0.00 78 1021.3
20260507043200 57 194 0.9 2.6 0.00 0.00 0.00 78 1021.3
20260507042658 58 217 0.9 2.6 0.00 0.00 0.00 77 1021.2
20260507042158 58 205 0.0 2.6 0.00 0.00 0.00 77 1021.1
20260507041656 58 165 0.9 1.7 0.00 0.00 0.00 77 1021.0
20260507041156 58 144 0.9 3.5 0.00 0.00 0.00 77 1021.0
20260507040656 58 201 0.9 3.5 0.00 0.00 0.00 77 1020.9
20260507040156 58 198 0.9 3.5 0.00 0.00 0.00 77 1020.9
20260507035654 58 174 0.9 3.5 0.00 0.00 0.00 77 1020.9
20260507035154 58 200 0.9 3.5 0.00 0.00 0.00 76 1020.8
20260507034652 58 211 0.9 3.5 0.00 0.00 0.00 76 1020.7
20260507033650 59 152 0.9 3.5 0.00 0.00 0.00 76 1020.6
20260507033150 59 194 0.9 3.5 0.00 0.00 0.00 76 1020.5
20260507032648 59 164 0.9 3.5 0.00 0.00 0.00 76 1020.5
20260507032150 59 8 0.9 3.5 0.00 0.00 0.00 76 1020.4
20260507031649 60 209 0.9 1.7 0.00 0.00 0.00 75 1020.2
20260507031148 60 197 0.9 2.6 0.00 0.00 0.00 75 1020.2
20260507030148 60 161 0.9 3.5 0.00 0.00 0.00 75 1020.1
20260507025150 61 186 0.9 1.7 0.00 0.00 0.00 74 1020.0
20260507024644 61 148 0.0 1.7 0.00 0.00 0.00 74 1019.9
20260507024143 61 188 0.0 2.6 0.00 0.00 0.00 74 1019.9
20260507023644 61 193 0.9 2.6 0.00 0.00 0.00 74 1019.9
20260507023142 62 177 0.9 4.3 0.00 0.00 0.00 73 1019.8
20260507021634 63 176 0.0 1.7 0.00 0.00 0.00 71 1019.7
20260507020628 64 184 0.9 3.5 0.00 0.00 0.00 71 1019.7
20260507020128 64 159 0.9 3.5 0.00 0.00 0.00 70 1019.7
20260507015626 65 190 0.9 2.6 0.00 0.00 0.00 70 1019.7
20260507015126 65 213 0.0 1.7 0.00 0.00 0.00 69 1019.7
20260507014623 65 174 0.9 2.6 0.00 0.00 0.00 70 1019.8
20260507014123 65 169 0.9 2.6 0.00 0.00 0.00 69 1019.8
20260507013622 65 359 0.9 2.6 0.00 0.00 0.00 70 1019.9
20260507013121 64 184 0.9 2.6 0.00 0.00 0.00 70 1019.9
20260507012621 65 270 0.9 2.6 0.00 0.00 0.00 70 1019.9
20260507011614 66 224 0.9 3.5 0.00 0.00 0.00 68 1019.9
20260507011112 67 210 0.9 4.3 0.00 0.00 0.00 67 1019.9
20260507010112 68 161 0.9 3.5 0.00 0.00 0.00 66 1019.8
20260507005610 68 177 0.9 3.5 0.00 0.00 0.00 65 1019.8
20260507004109 69 199 0.9 2.6 0.00 0.00 0.00 66 1019.8
20260507003601 69 181 0.9 2.6 0.00 0.00 0.00 66 1019.7
20260507003101 69 176 0.9 2.6 0.00 0.00 0.00 64 1019.7
20260507002601 70 198 0.9 3.5 0.00 0.00 0.00 64 1019.7
20260507002100 70 189 0.9 3.5 0.00 0.00 0.00 66 1019.7
20260507001557 69 208 0.9 2.6 0.00 0.00 0.00 66 1019.6
20260507001055 69 98 0.9 2.6 0.00 0.00 0.00 67 1019.7
20260507000556 70 158 0.9 1.7 0.00 0.00 0.00 66 1019.7
20260507000056 69 172 0.9 2.6 0.00 0.00 0.00 67 1019.7
20260506235553 69 162 0.9 2.6 0.00 0.00 0.00 67 1019.7
20260506235054 70 158 0.9 3.5 0.00 0.00 0.00 68 1019.7
20260506234552 70 176 0.9 3.5 0.00 0.00 0.00 67 1019.6
20260506234052 70 188 0.0 0.9 0.00 0.00 0.00 67 1019.6
20260506233549 70 186 0.0 1.7 0.00 0.00 0.00 67 1019.6
20260506233050 70 179 0.0 1.7 0.00 0.00 0.00 67 1019.5
20260506232548 70 193 0.9 2.6 0.00 0.00 0.00 67 1019.5
20260506232048 70 193 0.9 2.6 0.00 0.00 0.00 67 1019.5
20260506231546 70 196 0.0 2.6 0.00 0.00 0.00 65 1019.5
20260506231044 70 167 0.0 2.6 0.00 0.00 0.00 64 1019.6
20260506230544 70 167 0.0 1.7 0.00 0.00 0.00 64 1019.6
20260506230040 70 167 0.0 0.9 0.00 0.00 0.00 64 1019.7
20260506225537 70 167 0.9 2.6 0.00 0.00 0.00 64 1019.7
20260506224536 69 139 0.9 2.6 0.00 0.00 0.00 66 1019.8
20260506224035 69 131 0.9 2.6 0.00 0.00 0.00 66 1019.9
20260506223033 69 167 0.0 1.7 0.00 0.00 0.00 67 1020.0
20260506222032 69 177 0.0 2.6 0.00 0.00 0.00 68 1020.0
20260506221526 68 177 0.9 4.3 0.00 0.00 0.00 69 1020.1
20260506220522 69 199 0.9 3.5 0.00 0.00 0.00 68 1020.0
20260506220020 69 187 0.9 2.6 0.00 0.00 0.00 67 1020.1
20260506215520 69 169 0.9 3.5 0.00 0.00 0.00 66 1020.1
20260506215020 69 79 0.9 7.0 0.00 0.00 0.00 67 1020.1
20260506214519 68 176 1.7 7.0 0.00 0.00 0.00 68 1020.1
20260506214019 68 122 1.7 5.2 0.00 0.00 0.00 69 1020.0
20260506213520 68 108 1.7 4.3 0.00 0.00 0.00 68 1020.1
20260506213017 67 155 0.9 5.2 0.00 0.00 0.00 70 1020.2
20260506212517 67 150 0.9 5.2 0.00 0.00 0.00 70 1020.1
20260506211515 66 103 0.9 4.3 0.00 0.00 0.00 71 1020.4
20260506211014 66 142 0.9 2.6 0.00 0.00 0.00 71 1020.5
20260506210514 66 15 0.9 2.6 0.00 0.00 0.00 70 1020.6
20260506210013 66 137 0.9 2.6 0.00 0.00 0.00 71 1020.6
20260506205512 65 146 0.9 3.5 0.00 0.00 0.00 71 1020.6
20260506205009 65 147 1.7 5.2 0.00 0.00 0.00 71 1020.6
20260506204510 65 129 0.9 5.2 0.00 0.00 0.00 72 1020.6
20260506203506 65 188 0.0 1.7 0.00 0.00 0.00 73 1020.6
20260506203005 65 189 0.9 1.7 0.00 0.00 0.00 72 1020.5
20260506202440 64 181 0.9 2.6 0.00 0.00 0.00 74 1020.5
20260506201939 64 143 0.9 3.5 0.00 0.00 0.00 74 1020.5
20260506201439 63 149 0.9 3.5 0.00 0.00 0.00 75 1020.5
20260506200939 63 112 0.9 2.6 0.00 0.00 0.00 75 1020.6
20260506200439 63 144 0.9 3.5 0.00 0.00 0.00 74 1020.7
20260506195937 63 145 0.9 3.5 0.00 0.00 0.00 75 1020.8
20260506194938 63 181 0.0 2.6 0.00 0.00 0.00 75 1020.8
20260506194436 63 181 0.9 2.6 0.00 0.00 0.00 76 1020.9
20260506193933 63 122 0.0 2.6 0.00 0.00 0.00 75 1020.9
20260506193433 63 156 0.0 0.0 0.00 0.00 0.00 74 1021.0
20260506192934 63 189 0.0 0.0 0.00 0.00 0.00 76 1021.0
20260506192432 63 190 0.0 0.9 0.00 0.00 0.00 75 1021.1
20260506191929 63 200 0.0 0.9 0.00 0.00 0.00 75 1021.1
20260506191427 63 200 0.0 0.9 0.00 0.00 0.00 76 1021.0
20260506190929 62 200 0.0 2.6 0.00 0.00 0.00 77 1020.9
20260506190424 62 200 0.0 2.6 0.00 0.00 0.00 77 1020.9
20260506185921 61 153 0.9 1.7 0.00 0.00 0.00 78 1020.9
20260506185420 61 150 0.9 3.5 0.00 0.00 0.00 77 1020.9
20260506184914 61 150 1.7 5.2 0.00 0.00 0.00 78 1020.9
20260506184413 61 143 1.7 5.2 0.00 0.00 0.00 77 1020.9
20260506183913 62 168 0.0 1.7 0.00 0.00 0.00 78 1020.9
20260506183411 61 169 0.0 3.5 0.00 0.00 0.00 79 1020.9
20260506182911 61 148 0.9 5.2 0.00 0.00 0.00 79 1020.8
20260506182412 60 141 0.9 5.2 0.00 0.00 0.00 79 1020.8
20260506181914 60 223 0.9 2.6 0.00 0.00 0.00 80 1020.8
20260506181411 60 192 0.0 2.6 0.00 0.00 0.00 80 1020.9
20260506180910 60 161 0.0 0.9 0.00 0.00 0.00 81 1021.0
20260506180408 60 160 0.0 0.9 0.00 0.00 0.00 82 1020.9
20260506175408 60 161 0.0 0.9 0.00 0.00 0.00 81 1020.9
20260506174907 60 161 0.0 0.0 0.00 0.00 0.00 81 1020.9
20260506174408 60 161 0.0 1.7 0.00 0.00 0.00 82 1021.0
20260506173906 59 160 0.0 1.7 0.00 0.00 0.00 83 1020.9
20260506173404 59 159 0.0 1.7 0.00 0.00 0.00 82 1020.8
20260506172901 59 159 0.0 1.7 0.00 0.00 0.00 82 1020.8
20260506172359 59 169 0.0 0.9 0.00 0.00 0.00 82 1020.8
20260506171857 59 168 0.0 0.9 0.00 0.00 0.00 83 1020.7
20260506171355 59 168 0.0 0.9 0.00 0.00 0.00 82 1020.7
20260506170853 58 171 0.0 1.7 0.00 0.00 0.00 83 1020.6
20260506170353 58 155 0.0 1.7 0.00 0.00 0.00 82 1020.6
20260506165852 58 199 0.0 0.0 0.00 0.00 0.00 83 1020.6
20260506164348 58 153 0.0 0.0 0.00 0.00 0.00 82 1020.9
20260506163847 58 153 0.0 0.0 0.00 0.00 0.00 83 1020.8
20260506163347 58 153 0.0 0.0 0.00 0.00 0.00 83 1020.7
20260506162846 58 153 0.0 0.0 0.00 0.00 0.00 83 1020.8
20260506162346 58 148 0.0 0.0 0.00 0.00 0.00 83 1020.8
20260506161843 58 148 0.0 1.7 0.00 0.00 0.00 83 1020.9
20260506161345 58 133 0.0 1.7 0.00 0.00 0.00 83 1020.8
20260506160840 58 165 0.0 0.9 0.00 0.00 0.00 83 1020.6
20260506160339 58 165 0.0 1.7 0.00 0.00 0.00 83 1020.4
20260506155837 57 162 0.0 1.7 0.00 0.00 0.00 83 1020.5
20260506155337 58 186 0.0 0.0 0.00 0.00 0.00 83 1020.4
20260506154837 58 186 0.0 0.0 0.00 0.00 0.00 83 1020.1
20260506154335 57 176 0.0 0.0 0.00 0.00 0.00 84 1020.2
20260506153834 57 176 0.0 0.0 0.00 0.00 0.00 84 1020.0
20260506153333 57 176 0.0 0.0 0.00 0.00 0.00 85 1019.8
20260506152332 56 200 0.0 0.0 0.00 0.00 0.00 85 1019.9
20260506151832 56 200 0.0 0.0 0.00 0.00 0.00 85 1020.4
20260506150831 56 205 0.0 0.0 0.00 0.00 0.00 85 1020.6
20260506150331 56 205 0.0 0.0 0.00 0.00 0.00 85 1020.7
20260506145830 56 205 0.0 0.0 0.00 0.00 0.00 85 1020.7
20260506145324 56 205 0.0 0.0 0.00 0.00 0.00 85 1020.7
20260506144822 56 205 0.0 0.0 0.00 0.00 0.00 84 1020.6
20260506144321 56 205 0.0 0.0 0.00 0.00 0.00 85 1020.6
20260506143819 56 205 0.0 0.0 0.00 0.00 0.00 84 1020.5
20260506143320 57 205 0.0 0.0 0.00 0.00 0.00 84 1020.4
20260506142814 57 205 0.0 0.0 0.00 0.00 0.00 84 1020.5
20260506141751 57 178 0.0 0.0 0.00 0.00 0.00 84 1020.0
20260506141252 57 190 0.0 0.0 0.00 0.00 0.00 85 1019.7
20260506140751 57 190 0.0 0.0 0.00 0.00 0.00 85 1019.6
20260506140251 57 190 0.0 0.0 0.00 0.00 0.00 85 1019.6
20260506135241 57 190 0.0 0.0 0.00 0.00 0.00 85 1019.6
20260506134740 57 190 0.0 0.0 0.00 0.00 0.00 85 1019.6
20260506134240 57 190 0.0 0.0 0.00 0.00 0.00 85 1019.6
20260506133738 57 190 0.0 0.0 0.00 0.00 0.00 85 1019.5
20260506133235 57 190 0.0 0.0 0.00 0.00 0.00 85 1019.5
20260506132733 57 190 0.0 0.0 0.00 0.00 0.00 85 1019.5
20260506132231 57 190 0.0 0.0 0.00 0.00 0.00 85 1019.4
20260506131728 57 191 0.0 0.0 0.00 0.00 0.00 85 1019.4
20260506131229 57 190 0.0 0.0 0.00 0.00 0.00 85 1019.4
20260506130726 57 191 0.0 0.0 0.00 0.00 0.00 85 1019.3
20260506130224 57 190 0.0 0.0 0.00 0.00 0.00 85 1019.2
20260506125722 57 190 0.0 0.0 0.00 0.00 0.00 85 1019.1
20260506125222 57 190 0.0 0.0 0.00 0.00 0.00 85 1019.0
20260506124721 57 190 0.0 0.0 0.00 0.00 0.00 84 1019.0
20260506124221 57 190 0.0 0.0 0.00 0.00 0.00 84 1019.0
20260506123719 57 190 0.0 0.0 0.00 0.00 0.00 84 1018.9
20260506123219 57 190 0.0 0.0 0.00 0.00 0.00 84 1018.8
20260506122215 57 190 0.0 0.0 0.00 0.00 0.00 84 1019.0
20260506121711 57 190 0.0 0.0 0.00 0.00 0.00 84 1019.1
20260506121211 57 190 0.0 0.0 0.00 0.00 0.00 84 1019.0
20260506120711 57 190 0.0 0.0 0.00 0.00 0.00 84 1019.0
20260506115710 57 190 0.0 0.0 0.00 0.00 0.00 83 1018.9
20260506115208 57 190 0.0 0.0 0.00 0.00 0.00 83 1018.9
20260506114709 57 190 0.0 0.0 0.00 0.00 0.00 83 1018.9
20260506114212 57 190 0.0 0.0 0.00 0.00 0.00 83 1018.8
20260506113707 57 190 0.0 0.0 0.00 0.00 0.00 83 1018.8
20260506113204 57 190 0.0 0.0 0.00 0.00 0.00 83 1018.7
20260506112705 57 190 0.0 0.0 0.00 0.00 0.00 83 1018.7
20260506112205 57 190 0.0 0.0 0.00 0.00 0.00 83 1018.6
20260506111702 57 190 0.0 0.0 0.00 0.00 0.00 83 1018.6
20260506111159 57 190 0.0 0.0 0.00 0.00 0.00 83 1018.6
20260506110658 57 191 0.0 0.0 0.00 0.00 0.00 83 1018.5
20260506110155 57 190 0.0 0.0 0.00 0.00 0.00 83 1018.4
20260506105154 57 190 0.0 0.0 0.00 0.00 0.00 83 1018.2
20260506104654 57 190 0.0 0.0 0.00 0.00 0.00 83 1018.2
20260506104151 57 190 0.0 0.0 0.00 0.00 0.00 83 1018.2
20260506103653 57 190 0.0 0.0 0.00 0.00 0.00 83 1018.1
20260506103149 58 190 0.0 0.0 0.00 0.00 0.00 83 1018.0
20260506102650 58 190 0.0 0.0 0.00 0.00 0.00 83 1017.9
20260506102147 58 190 0.0 0.0 0.00 0.00 0.00 83 1017.9
20260506101648 58 190 0.0 0.0 0.00 0.00 0.00 83 1017.8
20260506101147 58 190 0.0 0.0 0.00 0.00 0.00 83 1017.8
20260506095146 58 190 0.0 0.0 0.00 0.00 0.00 82 1017.6
20260506094639 58 190 0.0 0.0 0.00 0.00 0.00 82 1017.6
20260506094137 58 190 0.0 0.0 0.00 0.00 0.00 82 1017.6
20260506093637 58 190 0.0 0.0 0.00 0.00 0.00 82 1017.5
20260506093135 58 190 0.0 0.0 0.00 0.00 0.00 82 1017.5
20260506092635 58 190 0.0 0.0 0.00 0.00 0.00 82 1017.5
20260506092135 58 190 0.0 0.0 0.00 0.00 0.00 82 1017.5
20260506091638 58 190 0.0 0.0 0.00 0.00 0.00 82 1017.5
20260506091135 59 190 0.0 0.0 0.00 0.00 0.00 82 1017.5
20260506090634 59 190 0.0 0.0 0.00 0.00 0.00 82 1017.5
20260506090132 59 190 0.0 0.0 0.00 0.00 0.00 82 1017.4
20260506085631 59 190 0.0 0.0 0.00 0.00 0.00 83 1017.4
20260506085129 59 190 0.0 0.0 0.00 0.00 0.00 83 1017.4
20260506084630 59 190 0.0 0.0 0.00 0.00 0.00 82 1017.4
20260506084123 59 190 0.0 0.0 0.00 0.00 0.00 82 1017.4
20260506083624 59 190 0.0 0.0 0.00 0.00 0.00 82 1017.4
20260506083122 59 191 0.0 0.0 0.00 0.00 0.00 82 1017.4
20260506082622 59 190 0.0 0.0 0.00 0.00 0.00 82 1017.4
20260506082119 59 190 0.0 0.0 0.00 0.00 0.00 82 1017.4
20260506081119 59 190 0.0 0.0 0.00 0.00 0.00 82 1017.4
20260506080618 60 190 0.0 0.0 0.00 0.00 0.00 82 1017.3
20260506080119 60 190 0.0 0.0 0.00 0.00 0.00 82 1017.3
20260506073112 60 190 0.0 0.0 0.00 0.00 0.00 81 1017.1
20260506072613 60 190 0.0 0.0 0.00 0.00 0.00 80 1017.0
20260506072111 60 190 0.0 0.0 0.00 0.00 0.00 80 1017.0
20260506071613 60 190 0.0 0.0 0.00 0.00 0.00 80 1017.0
20260506071111 60 190 0.0 0.0 0.00 0.00 0.00 80 1017.0
20260506070611 60 190 0.0 0.0 0.00 0.00 0.00 80 1017.0
20260506070111 60 190 0.0 0.0 0.00 0.00 0.00 80 1017.0
20260506062106 60 190 0.0 0.0 0.00 0.00 0.00 80 1016.8
20260506061606 60 191 0.0 0.0 0.00 0.00 0.00 80 1016.8
20260506060559 60 190 0.0 0.0 0.00 0.00 0.00 80 1016.8